Regional Weather Roundup
Issued by NWS

Home | Current Version | Previous Version | Text Only | Print | Product List | Glossary On
Versions: 1 2 3 4 5 6 7 8 9 10 11 12 13 14 15 16 17 18 19 20 21 22 23 24 25 26 27 28 29 30 31 32 33 34 35 36 37 38 39 40 41 42 43 44 45 46 47 48 49 50
000
ASUS43 KMKX 272300
RWRWI

WISCONSIN REGIONAL WEATHER ROUNDUP
NATIONAL WEATHER SERVICE MILWAUKEE/SULLIVAN WI
600 PM CDT WED AUG 27 2014

NOTE: "FAIR" INDICATES FEW OR NO CLOUDS BELOW 12,000 FEET WITH NO
SIGNIFICANT WEATHER AND/OR OBSTRUCTIONS TO VISIBILITY.

WIZ001-002-006>008-014>016-023>028-280000-
NORTHWEST WISCONSIN

CITY           SKY/WX    TMP DP  RH WIND       PRES   REMARKS
SUPERIOR ARPT  MOSUNNY   71  53  53 SW5       30.14F
ASHLAND        SUNNY     69  51  52 CALM      30.17F
HAYWARD        MOSUNNY   71  49  45 CALM      30.16F
SIREN          SUNNY     70  52  52 N3        30.16F
RICE LAKE      SUNNY     70  53  53 CALM      30.17F
LADYSMITH      SUNNY     71  52  52 N10       30.18F
EAU CLAIRE     SUNNY     74  55  51 CALM      30.14F
MENOMONIE      CLEAR     74  54  49 CALM      30.14F
NEW RICHMOND   MOSUNNY   74  55  52 CALM      30.16S
OSCEOLA        MOSUNNY   73  57  59 N3        30.18S
$$

WIZ003>005-009-010-017-018-280000-
NORTH CENTRAL WISCONSIN

CITY           SKY/WX    TMP DP  RH WIND       PRES   REMARKS
WOODRUFF       SUNNY     69  48  46 NW6       30.17F
RHINELANDER    SUNNY     68  49  50 VRB3      30.17F
EAGLE RIVER    MOSUNNY   67  45  44 W8        30.17S
LAND O LAKES   SUNNY     68  44  41 NW6       30.18S
PHILLIPS       SUNNY     68  50  51 NW5       30.16F
TOMAHAWK       SUNNY     68  49  50 W7        30.17F
MEDFORD        SUNNY     69  52  55 N3        30.16F
MERRILL        SUNNY     71  52  51 NW7       30.15F
$$

WIZ029-030-035-036-043>047-280000-
CENTRAL WISCONSIN

CITY           SKY/WX    TMP DP  RH WIND       PRES   REMARKS
WAUSAU         SUNNY     73  51  46 NW7       30.13F
MOSINEE        MOSUNNY   70  52  52 NW5       30.16F
MARSHFIELD     SUNNY     73  54  51 N6        30.15F
STEVENS POINT  MOSUNNY   71  55  57 NW5       30.15F
WAUPACA        MOSUNNY   74  58  57 CALM      30.14F
WAUTOMA        NOT AVBL
WISC RAPIDS    SUNNY     73  57  57 NW5       30.15F
CAMP DOUGLAS   NOT AVBL
$$

WIZ011>013-019>022-031-037>040-048>050-280000-
NORTHEAST WISCONSIN

CITY           SKY/WX    TMP DP  RH WIND       PRES   REMARKS
ANTIGO         SUNNY     69  51  52 W7        30.16F
STURGEON BAY   SUNNY     66  57  72 SE5       30.15F
GREEN BAY      MOSUNNY   73  58  59 CALM      30.14F
MANITOWOC      NOT AVBL
APPLETON       PTSUNNY   72  54  53 VRB6      30.15F
CLINTONVILLE   PTSUNNY   73  54  49 E3        30.14S
OSHKOSH        PTSUNNY   72  58  61 SE5       30.14F
$$

WIZ032>034-041-042-053>061-280000-
SOUTHWEST WISCONSIN

CITY           SKY/WX    TMP DP  RH WIND       PRES   REMARKS
LA CROSSE      PTSUNNY   76  58  53 VRB3      30.12F
SPARTA         PTSUNNY   75  56  51 N3        30.14F
VIROQUA        FAIR      71  59  64 CALM      30.15F
BOSCOBEL       PTSUNNY   75  60  59 NE5       30.12F
PRAIRIE DU CHI PTSUNNY   74  57  55 E3        30.12F
PLATTEVILLE    FAIR      74  61  62 NE7       30.14F
$$

WIZ056-057-062-063-064-067-068-280000-
SOUTH CENTRAL WISCONSIN

CITY           SKY/WX    TMP DP  RH WIND       PRES   REMARKS
BARABOO/DELLS  PTSUNNY   73  56  53 W5        30.14S
LONE ROCK      NOT AVBL
WATERTOWN      PTSUNNY   73  60  64 NW5       30.13F
MADISON        PTSUNNY   75  60  59 NW3       30.13F
MIDDLETON      FAIR      74  58  55 NE3       30.14F
MONROE         CLOUDY    72  61  68 N6        30.13F
JANESVILLE     SUNNY     75  57  53 NE6       30.12F
$$

WIZ051-052-058>065-066-070>072-280000-
SOUTHEAST WISCONSIN

CITY           SKY/WX    TMP DP  RH WIND       PRES   REMARKS
MILWAUKEE      PTSUNNY   69  61  75 NE7       30.14F
WAUKESHA       PTSUNNY   70  61  73 E6        30.15F
MILWAUKEE/TIMM SUNNY     70  57  64 E7        30.14F
RACINE         PTSUNNY   69  61  75 E6        30.15F
BURLINGTON     PTSUNNY   71  63  75 E6        30.14S
KENOSHA        CLOUDY    69  62  78 E9        30.14F
FOND DU LAC    PTSUNNY   73  58  59 E5        30.14F
SHEBOYGAN      MOSUNNY   68  56  65 SE6       30.15F
WEST BEND      PTSUNNY   70  59  68 E6        30.15S
JUNEAU         PTSUNNY   73  57  59 CALM      30.15F
$$

LSZ147-162-280000-
LAKE SUPERIOR

STATION/POSITION TIME  TEMP    WIND        PRES    WAVE
                       AIR SEA DIR/SP/G            HT/PER
                 (UTC) (F)     (DEG/KT/KT) (MB)    (FT/S)
W MID LAKE BUOY  2150   58 56  220/  4/  4 1021.7F   1
DEVILS ISLAND    2200   63     240/  1/  3 1021.7F
PORT WING        2200   69     270/  4/  6 1021.3
$$

LMZ867-665-643>646-280000-
LAKE MICHIGAN

STATION/POSITION TIME  TEMP    WIND        PRES    WAVE
                       AIR SEA DIR/SP/G            HT/PER
                 (UTC) (F)     (DEG/KT/KT) (MB)    (FT/S)
N MID LAKE BUOY  2150   64 67  230/  2/  4 1021.2F   0
NORTHPORT PIER   2200   66     140/  9/ 10 1020.7F
SISTER BAY       2211   75        CALM       N/A
KEWAUNEE LAKESHO 2200   67     120/  5/  6 1020.5F
SHEBOYGAN LAKESH 2200   66 68  110/  6/  7 1021.5F
ATWATER BUOY     2200   68      90/  6/ 10 1022.0F
MILWAUKEE LAKESH 2200   68      70/  6/  7   N/A
S MID LAKE BUOY  2150   68 70  360/ 10/ 10 1021.1F   1
KENOSHA   LAKESH 2200   69      60/  7/  8 1020.3F
$$

TC  - TEMPERATURE IN CELSIUS
VSB - VISIBILITY IN STATUTE MILES
WCI - WIND CHILL INDEX
HX  - HEAT INDEX




USA.gov is the U.S. government's official web portal to all federal, state and local government web resources and services.